ZHANGHENG 1-02 (CSES-2)

Last updated on Thu Jul 03 2025 00:02:07 GMT+0000 (Coordinated Universal Time)

1 64393U 25128A 25183.51650783 .00002656 00000+0 12392-3 0 9995 2 64393 97.3184 314.3337 0009787 241.8848 118.1399 15.20669796 2778
UTC large
Height (km)
Speed (km/s)
/
Latitude / Longitude
Inclination (degrees)
Orbital Period (minutes)
Azimuth
Elevation
Range (km)
Doppler Factor

Next 0 passes for location: London (51.5072 / 0.1276)

Sorry there are no passes over London.